Location: UMBC
(39.2555°N, 76.7093°W)
Time: 12:46:47
(UTC+02:00)

Amateur Radio Satellites - All Passes

Search period start: 23 May 2017 12:16
Search period end: 24 May 2017 12:16
Location: UMBC, 39.2555°N, 76.7093°W

Satellite Date Start Highest point End Downlink Frequencies (MHz)
Time Altitude Azimuth
ISS 23 May 12:17:09 12:19:17 16° 230° (SW) 12:21:25 437.550
BEESAT 2 23 May 12:17:24 12:18:48 12° 108° (ESE) 12:20:10 435.950
AO-7 23 May 12:18:21 12:25:34 34° 301° (WNW) 12:32:48 .
NUDT-PHONESAT 23 May 12:23:47 12:25:25 12° 92° (E) 12:27:04 437.300
KAITUO 1B 23 May 12:26:14 12:28:14 14° 92° (E) 12:30:13 145.475/437.950
AO-85 23 May 12:26:15 12:30:20 51° 304° (NW) 12:34:15 145.980
DOVE 4 23 May 12:27:47 12:31:37 36° 98° (E) 12:35:31 437.250
RS-15 23 May 12:33:14 12:42:58 26° 335° (NNW) 12:52:46 29.354- 29.394
LilacSat-2 23 May 12:41:45 12:45:11 30° 97° (E) 12:48:36 437.200
BEESAT 3 23 May 12:44:01 12:47:56 72° 119° (ESE) 12:51:56 437.485
PCSat 23 May 12:48:47 12:53:33 32° 251° (WSW) 12:58:18 145.827
CUTE-I 23 May 13:20:30 13:25:49 65° 101° (ESE) 13:31:06 437.470
XW-2D 23 May 13:20:44 13:24:36 86° 281° (W) 13:28:27 145.860 - 145.880
XW-2B 23 May 13:28:35 13:32:26 71° 284° (WNW) 13:36:14 145.730 - 145.750
STRAND 1 23 May 13:34:14 13:39:17 71° 75° (ENE) 13:44:23 437.568
SO-50 23 May 13:40:19 13:43:49 22° 46° (NE) 13:47:19 436.795
XW-2C 23 May 13:42:09 13:45:52 46° 286° (WNW) 13:49:33 145.795 - 145.815
XW-2F 23 May 13:44:16 13:47:58 45° 286° (WNW) 13:51:37 145.980 - 146.000
SEEDS 23 May 13:48:18 13:50:41 15° 92° (E) 13:53:03 437.485
BEESAT 2 23 May 13:52:08 13:56:01 56° 304° (NW) 13:59:59 435.950
NUDT-PHONESAT 23 May 13:55:57 13:59:30 39° 287° (WNW) 14:03:02 437.300
XW-2A 23 May 13:56:15 13:59:00 22° 96° (E) 14:01:44 145.665 - 145.685
JUGNU 23 May 13:56:54 13:57:46 10° 185° (S) 13:58:38 437.505
KAITUO 1B 23 May 13:58:51 14:02:22 36° 287° (WNW) 14:05:52 145.475/437.950
M-CUBED/EXP-1 PRIME 23 May 14:04:00 14:08:12 47° 69° (ENE) 14:12:09 437.505
DOVE 4 23 May 14:06:23 14:09:03 17° 293° (WNW) 14:11:46 437.250
HO-68 23 May 14:16:23 14:23:24 52° 101° (E) 14:30:22 435.675
LilacSat-2 23 May 14:16:32 14:19:14 18° 292° (WNW) 14:21:55 437.200
CUBEBUG 2 23 May 14:21:56 14:25:53 29° 96° (E) 14:29:54 437.445
BEESAT 3 23 May 14:24:12 14:26:00 13° 317° (NW) 14:27:48 437.485
CUTE 1.7 + AOD 2 23 May 14:25:24 14:29:39 64° 101° (E) 14:33:52 437.475
ZACube-1 23 May 14:29:14 14:30:36 11° 90° (E) 14:31:59 437.345
UWE-3 23 May 14:40:47 14:44:42 28° 96° (E) 14:48:39 435.000/436.395/437.385
RS-15 23 May 14:53:00 15:01:40 21° 11° (NNE) 15:10:10 29.354- 29.394
AAUSAT CUBESAT 2 23 May 14:58:45 15:02:43 44° 98° (E) 15:06:39 437.432
NO-84 23 May 15:00:35 15:03:21 16° 123° (ESE) 15:06:03 435.350 FM
CUTE-I 23 May 15:02:04 15:05:18 16° 298° (WNW) 15:08:31 437.470
FO-29 23 May 15:08:22 15:11:32 17° 62° (ENE) 15:14:44 435.910
PRISM 23 May 15:11:53 15:14:49 19° 67° (ENE) 15:17:44 437.425
STRAND 1 23 May 15:16:56 15:18:57 12° 270° (W) 15:20:59 437.568
SO-50 23 May 15:20:10 15:24:28 44° 244° (WSW) 15:28:46 436.795
SEEDS 23 May 15:22:34 15:26:34 42° 287° (WNW) 15:30:31 437.485
UNISAT 6 23 May 15:27:24 15:30:35 21° 67° (ENE) 15:33:48 437.425
XW-2A 23 May 15:29:10 15:31:36 18° 291° (WNW) 15:34:02 145.665 - 145.685
Oscar 11 23 May 15:29:39 15:33:42 36° 98° (E) 15:37:43 .
M-CUBED/EXP-1 PRIME 23 May 15:40:17 15:42:44 15° 261° (W) 15:45:07 437.505
AO-73 23 May 15:51:06 15:55:39 84° 103° (ESE) 16:00:13 145.935
DELFI C3 23 May 15:54:17 15:56:54 17° 93° (E) 15:59:30 145.870
CUBEBUG 2 23 May 15:58:36 16:02:22 26° 290° (WNW) 16:06:13 437.445
ZACube-1 23 May 16:02:45 16:07:15 66° 285° (WNW) 16:11:47 437.345
CUTE 1.7 + AOD 2 23 May 16:03:40 16:04:54 11° 297° (WNW) 16:06:08 437.475
HO-68 23 May 16:04:43 16:10:45 30° 298° (WNW) 16:16:47 435.675
SRMSAT 23 May 16:16:57 16:18:08 11° 183° (S) 16:19:19 437.500
UWE-3 23 May 16:17:12 16:21:02 27° 290° (WNW) 16:24:55 435.000/436.395/437.385
TIGRISAT 23 May 16:32:10 16:36:23 79° 257° (WSW) 16:40:42 435.000
AAUSAT CUBESAT 2 23 May 16:35:28 16:37:47 15° 294° (WNW) 16:40:04 437.432
NO-84 23 May 16:36:14 16:40:35 68° 318° (NW) 16:44:47 435.350 FM
PRISM 23 May 16:46:04 16:49:50 33° 262° (W) 16:53:36 437.425
FO-29 23 May 16:51:04 16:56:10 55° 259° (W) 17:01:18 435.910
EO-88 23 May 16:54:21 16:58:03 69° 102° (ESE) 17:01:42 145.990 - 145.960
AIST 2D 23 May 17:01:02 17:03:53 23° 71° (ENE) 17:06:45 435.315
UNISAT 6 23 May 17:03:18 17:07:05 31° 263° (W) 17:10:56 437.425
Oscar 11 23 May 17:06:29 17:09:33 19° 293° (WNW) 17:12:36 .
RS-15 23 May 17:07:03 17:18:39 45° 44° (NE) 17:29:43 29.354- 29.394
DELFI C3 23 May 17:28:14 17:31:44 31° 289° (WNW) 17:35:12 145.870
NANOSAT C BR1 23 May 17:31:22 17:34:57 28° 70° (ENE) 17:38:32 145.865
POLYITAN 1 23 May 17:32:03 17:35:46 32° 70° (ENE) 17:39:30 437.675
QB50P2 23 May 17:40:11 17:44:09 43° 73° (ENE) 17:48:09 145.880/145.840
DUCHIFAT 1 23 May 17:43:59 17:47:45 35° 71° (ENE) 17:51:33 145.980
LO-87 23 May 17:50:28 17:53:50 39° 99° (E) 17:57:11 145.935 - 145.965
NO-84 23 May 18:16:08 18:18:48 16° 335° (NNW) 18:21:23 435.350 FM
BUGSAT 1 23 May 18:18:08 18:21:25 25° 69° (ENE) 18:24:43 437.445
EO-79 23 May 18:18:32 18:22:41 72° 258° (WSW) 18:26:53 145.935-145.965
YUBILEINY 23 May 18:19:23 18:27:25 37° 73° (ENE) 18:35:23 435.215
ESTCUBE 1 23 May 18:21:09 18:25:33 51° 100° (E) 18:29:55 437.505/2401.250
SPROUT 23 May 18:22:25 18:24:14 12° 91° (E) 18:26:03 437.525
AIST 2D 23 May 18:34:36 18:37:03 18° 266° (W) 18:39:31 435.315
Oscar 19 23 May 19:00:20 19:04:51 31° 68° (ENE) 19:09:23 437.125/150
NANOSAT C BR1 23 May 19:07:25 19:10:38 22° 265° (W) 19:13:53 145.865
POLYITAN 1 23 May 19:08:34 19:11:35 19° 266° (W) 19:14:38 437.675
QB50P2 23 May 19:17:51 19:20:09 14° 268° (W) 19:22:27 145.880/145.840
RS-15 23 May 19:19:50 19:31:37 60° 248° (WSW) 19:42:48 29.354- 29.394
AO-85 23 May 19:20:02 19:20:52 10° 42° (NE) 19:21:43 145.980
DUCHIFAT 1 23 May 19:20:45 19:23:31 17° 266° (W) 19:26:19 145.980
LO-87 23 May 19:25:39 19:26:53 12° 294° (WNW) 19:28:09 145.935 - 145.965
50 SAT 23 May 19:32:14 19:35:26 37° 99° (E) 19:38:35 437.505
VELOX 1 23 May 19:33:27 19:37:51 81° 104° (ESE) 19:42:13 145.980
AO-7 23 May 19:35:23 19:39:31 15° 48° (NE) 19:43:41 .
Gurwin Techsat 1B 23 May 19:46:45 19:51:52 51° 72° (ENE) 19:57:00 435.225
BUGSAT 1 23 May 19:53:33 19:56:43 22° 265° (W) 19:59:54 437.445
SPROUT 23 May 19:56:16 20:00:25 52° 286° (WNW) 20:04:33 437.525
ESTCUBE 1 23 May 19:59:20 20:01:54 15° 296° (WNW) 20:04:27 437.505/2401.250
O/OREOS (USA 219) 23 May 20:12:25 20:16:09 25° 60° (ENE) 20:19:50 437.305
YUBILEINY 23 May 20:16:01 20:24:19 47° 272° (W) 20:32:36 435.215
UKube-1 23 May 20:21:13 20:25:29 64° 101° (ESE) 20:29:44 .
DX 1 23 May 20:21:13 20:25:33 85° 284° (WNW) 20:29:53 434.975-435.025
Oscar 19 23 May 20:39:32 20:44:05 30° 264° (W) 20:48:40 437.125/150
AO-85 23 May 20:57:44 21:01:47 90° 60° (ENE) 21:06:05 145.980
BEESAT 3 23 May 21:01:57 21:05:31 29° 51° (NE) 21:09:01 437.485
50 SAT 23 May 21:06:57 21:07:55 11° 294° (WNW) 21:08:54 437.505
ITUPSAT 1 23 May 21:07:14 21:10:19 17° 93° (E) 21:13:24 437.325
AO-7 23 May 21:22:35 21:30:46 68° 68° (ENE) 21:38:59 .
Gurwin Techsat 1B 23 May 21:28:24 21:32:05 19° 267° (W) 21:35:46 435.225
ITAMSAT 1 23 May 21:32:16 21:37:23 72° 74° (ENE) 21:42:34 435.822/435.867
NO-84 23 May 21:35:38 21:37:04 12° 18° (NNE) 21:38:28 435.350 FM
BEESAT 23 May 21:42:10 21:46:41 39° 99° (E) 21:51:09 436.000
O/OREOS (USA 219) 23 May 21:51:35 21:55:32 30° 256° (WSW) 21:59:26 437.305
MOZHAYETS 4 23 May 21:56:45 22:00:54 31° 96° (E) 22:05:00
UKube-1 23 May 21:59:30 22:00:56 12° 298° (WNW) 22:02:24 .
BEESAT 2 23 May 22:10:35 22:14:36 58° 56° (ENE) 22:18:34 435.950
CUBESAT XI-V 23 May 22:34:32 22:36:48 13° 91° (E) 22:39:04 437.345
BEESAT 3 23 May 22:39:45 22:42:57 23° 248° (WSW) 22:46:05 437.485
ITUPSAT 1 23 May 22:43:45 22:48:23 48° 288° (WNW) 22:53:00 437.325
CUTE-I 23 May 23:05:17 23:07:19 12° 59° (ENE) 23:09:21 437.470
NO-84 23 May 23:11:57 23:15:30 47° 39° (NE) 23:18:43 435.350 FM
ITAMSAT 1 23 May 23:15:13 23:17:21 12° 270° (W) 23:19:30 435.822/435.867
KKS-1 23 May 23:16:05 23:20:01 30° 97° (E) 23:23:56 437.445
AO-7 23 May 23:17:35 23:24:04 25° 265° (W) 23:30:36 .
BEESAT 23 May 23:20:35 23:24:10 21° 294° (WNW) 23:27:45 436.000
LilacSat-2 23 May 23:23:52 23:25:50 14° 66° (ENE) 23:27:48 437.200
DOVE 4 23 May 23:31:53 23:36:11 35° 72° (ENE) 23:40:15 437.250
MOZHAYETS 4 23 May 23:34:08 23:37:53 25° 292° (WNW) 23:41:39
BEESAT 2 23 May 23:50:27 23:51:50 11° 252° (WSW) 23:53:12 435.950
STARS 23 May 23:56:56 00:00:59 36° 98° (E) 00:05:02 437.465
XW-2D 24 May 00:00:47 00:04:16 36° 73° (ENE) 00:07:48 145.860 - 145.880
XW-2B 24 May 00:08:29 00:12:05 43° 74° (ENE) 00:15:44 145.730 - 145.750
CUBESAT XI-V 24 May 00:09:56 00:14:31 56° 286° (WNW) 00:19:02 437.345
XW-2C 24 May 00:21:47 00:25:32 67° 76° (ENE) 00:29:20 145.795 - 145.815
XW-2F 24 May 00:23:30 00:27:14 67° 77° (ENE) 00:31:01 145.980 - 146.000
NUDT-PHONESAT 24 May 00:33:32 00:37:13 72° 77° (ENE) 00:40:56 437.300
KAITUO 1B 24 May 00:37:03 00:40:48 82° 77° (ENE) 00:44:36 145.475/437.950
CUTE-I 24 May 00:41:16 00:46:35 87° 256° (WSW) 00:51:55 437.470
HO-68 24 May 00:44:06 00:50:26 35° 64° (ENE) 00:56:48 435.675
NO-84 24 May 00:50:44 00:52:35 14° 238° (WSW) 00:54:23 435.350 FM
KKS-1 24 May 00:52:55 00:56:24 23° 293° (WNW) 00:59:53 437.445
LilacSat-2 24 May 00:56:08 00:59:44 40° 262° (W) 01:03:23 437.200
DOVE 4 24 May 01:10:20 01:13:54 21° 265° (W) 01:17:20 437.250
CUTE 1.7 + AOD 2 24 May 01:16:43 01:20:41 38° 72° (ENE) 01:24:41 437.475
CUBEBUG 2 24 May 01:19:50 01:22:48 19° 67° (ENE) 01:25:48 437.445
STARS 24 May 01:33:55 01:37:04 20° 294° (WNW) 01:40:12 437.465
XW-2D 24 May 01:36:34 01:38:35 14° 268° (W) 01:40:38 145.860 - 145.880
UWE-3 24 May 01:37:35 01:40:27 18° 67° (ENE) 01:43:22 435.000/436.395/437.385
XW-2B 24 May 01:45:09 01:46:30 12° 269° (W) 01:47:50 145.730 - 145.750
PCSat 24 May 01:45:50 01:50:46 38° 111° (ESE) 01:55:46 145.827
STRAND 1 24 May 01:46:16 01:50:34 26° 95° (E) 01:54:50 437.568
AAUSAT CUBESAT 2 24 May 01:47:52 01:51:20 26° 70° (ENE) 01:54:48 437.432
XW-2A 24 May 01:58:15 02:01:33 66° 260° (W) 02:04:54 145.665 - 145.685
SEEDS 24 May 02:12:20 02:16:34 75° 258° (WSW) 02:20:51 437.485
Oscar 11 24 May 02:23:33 02:27:05 25° 69° (ENE) 02:30:39 .
HO-68 24 May 02:31:12 02:37:58 44° 261° (W) 02:44:47 435.675
AO-73 24 May 02:45:21 02:49:25 53° 74° (ENE) 02:53:35 145.935
CUTE 1.7 + AOD 2 24 May 02:53:52 02:56:39 17° 268° (W) 02:59:27 437.475
CUBEBUG 2 24 May 02:55:30 02:59:12 32° 263° (W) 03:02:58 437.445
ZACube-1 24 May 02:57:10 03:01:20 83° 79° (E) 03:05:37 437.345
UWE-3 24 May 03:12:51 03:16:38 34° 263° (W) 03:20:31 435.000/436.395/437.385
M-CUBED/EXP-1 PRIME 24 May 03:18:15 03:21:15 31° 103° (ESE) 03:24:10 437.505
ISS 24 May 03:19:27 03:22:13 25° 133° (SE) 03:25:00 437.550
Tancredo 1 24 May 03:20:14 03:23:08 40° 137° (SE) 03:26:04 437.200
AAUSAT CUBESAT 2 24 May 03:23:17 03:26:42 24° 265° (W) 03:30:08 437.432
STRAND 1 24 May 03:25:06 03:29:45 35° 291° (WNW) 03:34:22 437.568
PCSat 24 May 03:29:27 03:34:12 30° 308° (NW) 03:39:00 145.827
EO-88 24 May 03:31:23 03:34:22 24° 71° (ENE) 03:37:23 145.990 - 145.960
Oscar 11 24 May 03:59:27 04:03:06 27° 265° (W) 04:06:48 .
FO-29 24 May 04:00:01 04:04:45 21° 94° (E) 04:09:51 435.910
DELFI C3 24 May 04:11:37 04:15:36 68° 259° (W) 04:19:36 145.870
AO-73 24 May 04:24:33 04:25:59 11° 270° (W) 04:27:27 145.935
TIGRISAT 24 May 04:24:47 04:28:29 24° 95° (E) 04:32:13 435.000
LO-87 24 May 04:26:43 04:28:43 14° 68° (ENE) 04:30:43 145.935 - 145.965
PRISM 24 May 04:28:09 04:31:49 32° 98° (E) 04:35:27 437.425
M-CUBED/EXP-1 PRIME 24 May 04:53:57 04:55:25 12° 299° (WNW) 04:56:52 437.505
UNISAT 6 24 May 04:54:54 04:59:24 55° 100° (E) 05:03:58 437.425
ISS 24 May 04:55:35 04:58:38 34° 329° (NNW) 05:01:40 437.550
Tancredo 1 24 May 04:56:30 04:59:01 22° 333° (NNW) 05:01:32 437.200
EO-88 24 May 05:05:21 05:08:00 19° 266° (W) 05:10:40 145.990 - 145.960
ESTCUBE 1 24 May 05:19:22 05:23:37 41° 72° (ENE) 05:27:54 437.505/2401.250
SO-50 24 May 05:32:45 05:37:20 75° 120° (ESE) 05:41:54 436.795
FO-29 24 May 05:43:48 05:50:02 65° 287° (WNW) 05:57:04 435.910
LO-87 24 May 05:58:42 06:01:53 31° 263° (W) 06:05:05 145.935 - 145.965
AIST 2D 24 May 05:59:35 06:02:50 32° 97° (E) 06:06:04 435.315
TIGRISAT 24 May 06:01:06 06:05:09 32° 290° (WNW) 06:09:15 435.000
PRISM 24 May 06:04:00 06:06:51 19° 293° (WNW) 06:09:42 437.425
EO-79 24 May 06:04:52 06:07:57 19° 94° (E) 06:11:02 145.935-145.965
50 SAT 24 May 06:04:56 06:06:36 13° 67° (ENE) 06:08:15 437.505
VELOX 1 24 May 06:29:13 06:33:35 62° 74° (ENE) 06:37:58 145.980
UNISAT 6 24 May 06:33:04 06:35:39 15° 295° (WNW) 06:38:15 437.425
ISS 24 May 06:34:42 06:35:54 11° 348° (NNW) 06:37:06 437.550
SPROUT 24 May 06:47:58 06:52:12 82° 258° (WSW) 06:56:28 437.525
NANOSAT C BR1 24 May 06:51:21 06:55:34 61° 101° (E) 06:59:46 145.865
POLYITAN 1 24 May 06:52:45 06:57:02 71° 102° (ESE) 07:01:18 437.675
ESTCUBE 1 24 May 06:57:31 07:00:34 18° 267° (W) 07:03:38 437.505/2401.250
QB50P2 24 May 07:01:15 07:05:31 84° 285° (WNW) 07:09:47 145.880/145.840
DUCHIFAT 1 24 May 07:03:50 07:08:04 77° 102° (ESE) 07:12:18 145.980
UKube-1 24 May 07:14:20 07:18:28 46° 72° (ENE) 07:22:36 .
DX 1 24 May 07:15:14 07:19:34 71° 75° (ENE) 07:23:55 434.975-435.025
Oscar 19 24 May 07:15:22 07:16:37 11° 89° (E) 07:17:52 437.125/150
SO-50 24 May 07:15:38 07:18:18 15° 318° (NW) 07:20:58 436.795
YUBILEINY 24 May 07:18:58 07:27:00 43° 87° (E) 07:35:04 435.215
RS-15 24 May 07:30:59 07:40:14 27° 101° (E) 07:49:38 29.354- 29.394
FO-29 24 May 07:33:24 07:34:10 10° 303° (WNW) 07:34:55 435.910
AIST 2D 24 May 07:33:50 07:35:44 14° 292° (WNW) 07:37:37 435.315
BUGSAT 1 24 May 07:34:58 07:38:59 50° 100° (E) 07:43:02 437.445
50 SAT 24 May 07:36:00 07:39:09 33° 262° (W) 07:42:19 437.505
EO-79 24 May 07:39:56 07:43:46 33° 289° (WNW) 07:47:35 145.935-145.965
Gurwin Techsat 1B 24 May 08:04:41 08:08:45 22° 94° (E) 08:12:46 435.225
VELOX 1 24 May 08:09:06 08:10:24 11° 269° (W) 08:11:42 145.980
Tancredo 1 24 May 08:11:44 08:12:37 11° 13° (NNE) 08:13:31 437.200
ISS 24 May 08:12:42 08:13:36 11° 9° (N) 08:14:30 437.550
ITUPSAT 1 24 May 08:13:09 08:16:24 18° 64° (ENE) 08:19:38 437.325
NANOSAT C BR1 24 May 08:29:15 08:30:44 12° 297° (WNW) 08:32:14 145.865
POLYITAN 1 24 May 08:31:34 08:32:12 10° 297° (WNW) 08:32:51 437.675
BEESAT 24 May 08:47:24 08:51:49 41° 71° (ENE) 08:56:17 436.000
Oscar 19 24 May 08:51:19 08:56:31 80° 285° (WNW) 09:01:38 437.125/150
UKube-1 24 May 08:52:20 08:54:42 14° 267° (W) 08:57:04 .
MOZHAYETS 4 24 May 08:57:40 09:01:30 27° 69° (ENE) 09:05:22
BUGSAT 1 24 May 09:11:58 09:13:55 13° 295° (WNW) 09:15:52 437.445
YUBILEINY 24 May 09:15:47 09:23:46 40° 287° (WNW) 09:31:52 435.215
AO-7 24 May 09:26:33 09:32:44 22° 93° (E) 09:38:53 .
CUBESAT XI-V 24 May 09:37:20 09:39:28 13° 63° (ENE) 09:41:38 437.345
RS-15 24 May 09:39:10 09:51:17 82° 302° (WNW) 10:03:46 29.354- 29.394
Gurwin Techsat 1B 24 May 09:43:49 09:48:51 44° 290° (WNW) 09:53:52 435.225
Tancredo 1 24 May 09:46:11 09:49:05 37° 32° (NNE) 09:51:58 437.200
ITAMSAT 1 24 May 09:46:36 09:51:00 27° 96° (E) 09:55:23 435.822/435.867
ISS 24 May 09:48:01 09:50:57 28° 29° (NNE) 09:53:50 437.550
ITUPSAT 1 24 May 09:49:16 09:53:50 46° 260° (W) 09:58:27 437.325
KKS-1 24 May 10:13:14 10:16:53 26° 68° (ENE) 10:20:32 437.445
O/OREOS (USA 219) 24 May 10:23:18 10:27:25 33° 104° (ESE) 10:31:33 437.305
BEESAT 24 May 10:26:19 10:29:44 20° 266° (W) 10:33:11 436.000
MOZHAYETS 4 24 May 10:34:36 10:38:33 28° 264° (W) 10:42:32
PCSat 24 May 10:34:40 10:39:14 26° 50° (NE) 10:43:45 145.827
STARS 24 May 10:52:34 10:56:18 28° 69° (ENE) 11:00:03 437.465
AO-85 24 May 11:11:26 11:15:17 35° 116° (ESE) 11:18:59 145.980
CUBESAT XI-V 24 May 11:11:35 11:16:15 66° 259° (WSW) 11:20:58 437.345
AO-7 24 May 11:17:50 11:26:10 75° 290° (WNW) 11:34:29 .
Tancredo 1 24 May 11:22:24 11:24:39 19° 228° (SW) 11:26:55 437.200
ISS 24 May 11:24:28 11:27:26 31° 225° (SW) 11:30:22 437.550
ITAMSAT 1 24 May 11:25:47 11:30:28 35° 292° (WNW) 11:35:09 435.822/435.867
KKS-1 24 May 11:49:32 11:53:19 27° 264° (W) 11:57:07 437.445
JUGNU 24 May 11:53:20 11:54:31 11° 176° (S) 11:55:43 437.505
BEESAT 2 24 May 12:02:59 12:04:39 12° 108° (ESE) 12:06:20 435.950
O/OREOS (USA 219) 24 May 12:03:11 12:06:51 23° 301° (WNW) 12:10:34 437.305
